Weather in Zapadnoye Konchezero

Russia / Republic of Karelia     62°06′28″N   34°00′32″E
temp.,
°C
wind,
m/s
gust,
m/s
humid.,
%
clouds,
%
prec.,
mm/h
press.,
hPa
HPBL,
m
28 july, wed
wed2800:00+14ese236717 0.0 101863
03:00+14sse246779 0.0 1017100
06:00+15se126870 0.0 101549
09:00+21sse125499 0.0 1013341
12:00+26ssw23435 0.0 1012972
15:00+27wsw443486 0.0 10092209
18:00+27sw1238100 0.0 1007675
21:00+18n1176100 0.4 100714
29 july, thu
thu2900:00+17sw2678100 0.0 1006138
03:00+15wsw1195100 0.3 100551
06:00+16sse1296100 0.7 100459
09:00+16ese1396100 1.5 1003196
12:00+19se248086 0.5 1001689
15:00+19sse1389100 5.3 999468
18:00+19wsw2692100 6.3 998425
21:00+16sw3997100 10.3 998295
30 july, fri
fri3000:00+15sw399852 0.3 998258
03:00+14sw299870 0.3 998205
06:00+14sw3109772 0.0 997303
09:00+19wsw477597 0.0 998714
12:00+22sw4852100 0.0 9981617
15:00+21sw6948100 0.0 9981552
18:00+21wsw595037 0.0 9971696
21:00+17sw49685 0.0 997611
31 july, sat
sat3100:00+12ssw289675 0.0 997168
03:00+13ssw299099 0.1 996253
06:00+13ssw28965 1.4 996247
09:00+17sw25746 1.4 995606
12:00+20sw345587 0.8 9951480
15:00+20ssw4451100 0.8 9961241
18:00+20wsw345867 0.1 997894
21:00+15sw25840 0.1 99896
1 august, sun
sun100:00+13sw26986 0.0 999130
03:00+12sw259816 0.0 1000117
06:00+13ssw14935 0.0 1000130
09:00+20sw246234 0.0 999683
12:00+22ssw455627 0.1 9981447
15:00+20ssw478791 3.4 998769
18:00+20sw48735 1.7 998945
21:00+16ssw388263 1.8 998377